TimeCDT,TemperatureF,Dew PointF,Humidity,Sea Level PressureIn,VisibilityMPH,Wind Direction,Wind SpeedMPH,Gust SpeedMPH,PrecipitationIn,Events,Conditions,WindDirDegrees,DateUTC
12:56 AM,68.0,66.0,93,29.85,9.0,South,10.4,-,N/A,,Clear,170,2014-03-22 05:56:00
1:35 AM,68.0,66.9,96,29.91,8.0,SSE,9.2,-,N/A,,Mostly Cloudy,160,2014-03-22 06:35:00
1:56 AM,68.0,66.9,96,29.86,8.0,SSE,9.2,-,N/A,,Overcast,160,2014-03-22 06:56:00
2:56 AM,69.1,68.0,96,29.85,8.0,SSE,5.8,-,N/A,,Overcast,160,2014-03-22 07:56:00
3:56 AM,69.1,68.0,96,29.83,8.0,South,6.9,-,N/A,,Overcast,170,2014-03-22 08:56:00
4:25 AM,70.0,68.0,93,29.90,7.0,SSE,5.8,-,N/A,,Overcast,150,2014-03-22 09:25:00
4:43 AM,70.0,68.0,93,29.89,7.0,SE,5.8,-,N/A,,Overcast,140,2014-03-22 09:43:00
4:56 AM,70.0,68.0,93,29.83,6.0,SE,5.8,-,N/A,,Overcast,140,2014-03-22 09:56:00
5:16 AM,70.0,68.0,93,29.90,6.0,SE,5.8,-,N/A,,Overcast,140,2014-03-22 10:16:00
5:39 AM,70.0,68.0,93,29.90,6.0,SE,5.8,-,N/A,,Overcast,140,2014-03-22 10:39:00
5:56 AM,70.0,68.0,93,29.84,6.0,SE,5.8,-,N/A,,Overcast,140,2014-03-22 10:56:00
6:56 AM,70.0,68.0,93,29.85,6.0,SSE,6.9,-,N/A,,Overcast,150,2014-03-22 11:56:00
7:56 AM,70.0,69.1,97,29.87,5.0,SE,5.8,-,N/A,,Overcast,140,2014-03-22 12:56:00
8:19 AM,71.1,69.1,93,29.93,6.0,SSE,5.8,-,N/A,,Overcast,150,2014-03-22 13:19:00
8:40 AM,71.1,69.1,93,29.94,8.0,SSE,6.9,-,N/A,,Overcast,150,2014-03-22 13:40:00
8:56 AM,72.0,69.1,91,29.89,8.0,SSE,8.1,-,N/A,,Overcast,160,2014-03-22 13:56:00
9:56 AM,73.0,69.1,87,29.91,10.0,SSE,6.9,-,N/A,,Overcast,160,2014-03-22 14:56:00
10:03 AM,73.0,69.1,87,29.97,10.0,SSE,6.9,-,N/A,,Overcast,160,2014-03-22 15:03:00
10:41 AM,73.9,69.1,85,29.97,10.0,South,6.9,-,N/A,,Overcast,180,2014-03-22 15:41:00
10:49 AM,73.9,69.1,85,29.97,10.0,South,5.8,-,N/A,,Overcast,170,2014-03-22 15:49:00
10:56 AM,75.0,69.1,82,29.92,10.0,South,4.6,-,N/A,,Overcast,170,2014-03-22 15:56:00
11:08 AM,73.9,69.1,85,29.97,10.0,South,4.6,-,N/A,,Overcast,170,2014-03-22 16:08:00
11:41 AM,77.0,69.1,76,29.97,10.0,SSW,10.4,-,N/A,,Overcast,210,2014-03-22 16:41:00
11:56 AM,75.9,69.1,79,29.91,10.0,South,6.9,-,N/A,,Overcast,190,2014-03-22 16:56:00
12:56 PM,79.0,69.1,72,29.89,10.0,South,10.4,-,N/A,,Overcast,180,2014-03-22 17:56:00
1:56 PM,82.0,69.1,65,29.87,10.0,SE,9.2,-,N/A,,Overcast,140,2014-03-22 18:56:00
2:56 PM,84.0,69.1,61,29.85,10.0,South,13.8,18.4,N/A,,Mostly Cloudy,170,2014-03-22 19:56:00
3:10 PM,82.9,69.1,63,29.90,10.0,SSE,9.2,-,N/A,,Scattered Clouds,160,2014-03-22 20:10:00
3:17 PM,84.9,69.1,59,29.90,10.0,South,9.2,-,N/A,,Mostly Cloudy,180,2014-03-22 20:17:00
3:29 PM,84.9,69.1,59,29.90,10.0,SSW,11.5,18.4,N/A,,Mostly Cloudy,200,2014-03-22 20:29:00
3:56 PM,84.0,69.1,61,29.84,10.0,ESE,10.4,-,N/A,,Overcast,120,2014-03-22 20:56:00
4:56 PM,84.9,68.0,57,29.83,10.0,SSE,8.1,-,N/A,,Partly Cloudy,160,2014-03-22 21:56:00
5:56 PM,84.9,69.1,59,29.83,10.0,East,15.0,21.9,N/A,,Overcast,100,2014-03-22 22:56:00
6:56 PM,80.1,68.0,67,29.85,10.0,ESE,12.7,26.5,N/A,,Overcast,120,2014-03-22 23:56:00
7:22 PM,78.1,68.0,71,29.91,10.0,ESE,15.0,25.3,N/A,,Overcast,120,2014-03-23 00:22:00
7:32 PM,78.1,68.0,71,29.92,10.0,ESE,16.1,-,N/A,,Overcast,120,2014-03-23 00:32:00
7:56 PM,77.0,68.0,74,29.87,10.0,SE,17.3,-,N/A,,Overcast,130,2014-03-23 00:56:00
8:56 PM,75.0,68.0,79,29.88,10.0,SE,13.8,-,N/A,,Overcast,130,2014-03-23 01:56:00
9:56 PM,73.0,66.9,81,29.91,10.0,SE,12.7,-,N/A,,Partly Cloudy,140,2014-03-23 02:56:00
10:56 PM,71.1,68.0,90,29.92,10.0,SE,10.4,-,N/A,,Mostly Cloudy,130,2014-03-23 03:56:00
11:17 PM,71.1,68.0,90,29.98,10.0,SE,5.8,-,N/A,,Overcast,130,2014-03-23 04:17:00
11:56 PM,72.0,69.1,91,29.94,10.0,SE,6.9,-,N/A,,Overcast,130,2014-03-23 04:56:00